Weather History for KMYR - April, 2013

Change the Weather History Date:

Saturday, April 20, 2013

  Actual Average Record
Temperature  
Mean Temperature 57 °F -  
Max Temperature 68 °F 70 °F 87 °F (2002)
Min Temperature 46 °F 53 °F 32 °F (1994)
Degree Days  
Heating Degree Days 8    
Growing Degree Days 7 (Base 50)    
Moisture  
Dew Point 52 °F    
Average Humidity 81    
Maximum Humidity 100    
Minimum Humidity 48    
Precipitation  
Precipitation 0.07 in - - ()
Sea Level Pressure  
Sea Level Pressure 30.04 in    
Wind  
Wind Speed 10 mph (NW)    
Max Wind Speed 18 mph    
Max Gust Speed 23 mph    
Visibility 10 miles    
Events Rain    
Averages and records for this station are not official NWS values.
T = Trace of Precipitation, MM = Missing Value Source: NWS Daily Summary

Daily Weather History Graph

Daily Weather History Graph

Search for Another Location

Airport or City:

Trip Planner

Search our weather history database for the weather conditions in past years. The results will help you decide how hot, cold, wet, or windy it might be!

Date:

Astronomy

Apr. 20, 2013 Rise Set
Actual Time 6:38 AM EDT 7:50 PM EDT
Civil Twilight 6:12 AM EDT 8:16 PM EDT
Nautical Twilight 5:42 AM EDT 8:47 PM EDT
Astronomical Twilight 5:10 AM EDT 9:19 PM EDT
Moon 2:47 PM EDT (4/20) 3:11 AM EDT (4/20)
Length of Visible Light 14h 03m
Length of Day
13h 11m
Waxing Gibbous, 71% of the Moon is Illuminated
Apr 20
Waxing Gibbous
Apr 25
Full
May 2
Last Quarter
May 9
New
May 18
First Quarter

Hourly Weather History & Observations

Time (EDT) Temp. Windchill Dew Point Humidity Pressure Visibility Wind Dir Wind Speed Gust Speed Precip Events Conditions
12:15 AM 66.2 °F - 66.2 °F 100% 29.92 in 10.0 mi SSW 8.1 mph - N/A   Overcast
12:35 AM 68.0 °F - 66.2 °F 94% 29.92 in 10.0 mi WSW 6.9 mph - N/A   Overcast
12:55 AM 68.0 °F - 66.2 °F 94% 29.92 in 10.0 mi West 9.2 mph - N/A   Overcast
1:15 AM 68.0 °F - 64.4 °F 88% 29.91 in 10.0 mi West 9.2 mph - N/A   Overcast
1:35 AM 68.0 °F - 64.4 °F 88% 29.91 in 10.0 mi West 8.1 mph - N/A   Overcast
1:55 AM 66.2 °F - 64.4 °F 94% 29.91 in 10.0 mi West 8.1 mph - N/A   Overcast
2:15 AM 66.2 °F - 64.4 °F 94% 29.91 in 10.0 mi West 8.1 mph - N/A   Mostly Cloudy
2:35 AM 66.2 °F - 62.6 °F 88% 29.92 in 10.0 mi West 11.5 mph 18.4 mph N/A   Mostly Cloudy
2:55 AM 64.4 °F - 60.8 °F 88% 29.93 in 10.0 mi West 18.4 mph 23.0 mph N/A   Mostly Cloudy
3:15 AM 60.8 °F - 57.2 °F 88% 29.93 in 7.0 mi West 13.8 mph 21.9 mph 0.02 in   Overcast
3:35 AM 60.8 °F - 57.2 °F 88% 29.92 in 10.0 mi WNW 10.4 mph - 0.04 in   Mostly Cloudy
3:55 AM 60.8 °F - 57.2 °F 88% 29.93 in 10.0 mi WNW 11.5 mph - 0.04 in   Mostly Cloudy
4:15 AM 60.8 °F - 55.4 °F 82% 29.94 in 10.0 mi WNW 11.5 mph 19.6 mph N/A   Overcast
4:35 AM 55.4 °F - 51.8 °F 88% 29.94 in 10.0 mi West 10.4 mph - 0.01 in   Overcast
4:55 AM 55.4 °F - 51.8 °F 88% 29.95 in 10.0 mi WNW 11.5 mph - 0.02 in   Overcast
5:15 AM 55.4 °F - 51.8 °F 88% 29.95 in 10.0 mi WNW 12.7 mph 17.3 mph 0.01 in   Overcast
5:35 AM 55.4 °F - 51.8 °F 88% 29.96 in 10.0 mi WNW 9.2 mph 17.3 mph 0.01 in   Overcast
5:50 AM 55.4 °F - 51.8 °F 88% 29.97 in 6.0 mi NW 12.7 mph - N/A Rain Rain
5:55 AM 55.4 °F - 51.8 °F 88% 29.97 in 10.0 mi WNW 10.4 mph - 0.01 in   Overcast
6:45 AM 55.4 °F - 51.8 °F 88% 30.01 in 4.0 mi NNW 11.5 mph - N/A Rain Light Rain
8:50 AM 55.4 °F - 51.8 °F 88% 30.07 in 10.0 mi NNW 13.8 mph - N/A   Mostly Cloudy
9:50 AM 53.6 °F - 44.6 °F 72% 30.10 in 10.0 mi North 17.3 mph - N/A   Mostly Cloudy
10:50 AM 55.4 °F - 44.6 °F 67% 30.12 in 10.0 mi North 17.3 mph - N/A   Partly Cloudy
11:50 AM 57.2 °F - 44.6 °F 63% 30.14 in 10.0 mi North 11.5 mph - N/A   Clear
12:45 PM 57.2 °F - 44.6 °F 63% 30.14 in 10.0 mi NNE 17.3 mph - N/A   Clear
1:50 PM 57.2 °F - 42.8 °F 59% 30.14 in 10.0 mi NNE 13.8 mph - N/A   Clear
2:45 PM 57.2 °F - 44.6 °F 63% 30.13 in 10.0 mi NNE 12.7 mph - N/A   Clear
3:50 PM 60.8 °F - 42.8 °F 52% 30.13 in 10.0 mi North 12.7 mph - N/A   Clear
4:45 PM 59.0 °F - 39.2 °F 48% 30.12 in 10.0 mi North 11.5 mph - N/A   Clear
5:45 PM 57.2 °F - 39.2 °F 51% 30.15 in 10.0 mi North 11.5 mph - N/A   Clear
7:50 PM 55.4 °F - 42.8 °F 63% 30.19 in 10.0 mi North 8.1 mph - N/A   Clear
8:55 PM 51.8 °F - 46.4 °F 82% 30.22 in 10.0 mi Calm Calm - N/A   Clear
9:50 PM 48.2 °F - 42.8 °F 82% 30.25 in 10.0 mi Calm Calm - N/A   Clear
10:55 PM 46.4 °F - 42.8 °F 87% 30.25 in 10.0 mi Calm Calm - N/A   Clear
11:15 PM 46.4 °F 45.2 °F 44.6 °F 93% 30.25 in 10.0 mi NNW 3.5 mph - N/A   Clear
11:35 PM 46.4 °F - 44.6 °F 93% 30.25 in 10.0 mi Calm Calm - N/A   Clear
11:55 PM 46.4 °F 45.2 °F 42.8 °F 87% 30.25 in 10.0 mi North 3.5 mph - N/A   Clear